Regional Weather Roundup
Issued by NWS

Home | Current Version | Previous Version | Graphics & Text | Print | Product List | Glossary On
Versions: 1 2 3 4 5 6 7 8 9 10 11 12 13 14 15 16 17 18 19 20 21 22 23 24 25 26 27 28 29 30 31 32 33 34 35 36 37 38 39 40 41 42 43 44 45 46 47 48 49 50
000
ASUS43 KBIS 011210
RWRND

NORTH DAKOTA REGIONAL WEATHER ROUNDUP
NATIONAL WEATHER SERVICE BISMARCK ND
700 AM CDT TUE SEP 01 2015

NOTE: "FAIR" INDICATES FEW OR NO CLOUDS BELOW 12,000 FEET WITH NO
SIGNIFICANT WEATHER AND/OR OBSTRUCTIONS TO VISIBILITY.


NDZ001>003-009>011-017-011300-
NORTHWEST NORTH DAKOTA

CITY           SKY/WX    TMP DP  RH WIND       PRES   REMARKS
WILLISTON      CLEAR     47  42  83 CALM      29.83S
6HR MIN TEMP:  46; 6HR MAX TEMP:  56;

MINOT          CLEAR     55  47  74 SW9       29.83R
$$

NDZ018>021-031>035-040>046-011300-
SOUTHWEST NORTH DAKOTA

CITY           SKY/WX    TMP DP  RH WIND       PRES   REMARKS
BISMARCK       CLEAR     51  50  96 E3        29.88S
6HR MIN TEMP:  51; 6HR MAX TEMP:  57;

DICKINSON      CLEAR     58  52  80 S10       29.85F
GARRISON         N/A     53  49  86 CALM      29.86S
6HR MIN TEMP:  48; 6HR MAX TEMP:  59;

HETTINGER ARPT CLEAR     53  50  89 SE6       29.89F
$$

NDZ004>008-012>016-024-026-027-054-011300-
NORTHEAST NORTH DAKOTA

CITY           SKY/WX    TMP DP  RH WIND       PRES   REMARKS
GRAND FORKS    FAIR      54  49  83 S3        29.85F
GRND FRKS AFB  PTCLDY    52  49  87 SW5       29.86F
DEVILS LAKE    CLEAR     63  46  55 SE3       29.85S
$$

NDZ022-023-025-028>030-036>039-047>053-011300-
SOUTHEAST NORTH DAKOTA

CITY           SKY/WX    TMP DP  RH WIND       PRES   REMARKS
FARGO          FOG       58  56  93 CALM      29.88S VSB 1/4
6HR MIN TEMP:  57; 6HR MAX TEMP:  63;

JAMESTOWN      CLEAR     52  49  89 SE3       29.88S
$$



USA.gov is the U.S. government's official web portal to all federal, state and local government web resources and services.